Cutler
DateTemperatureDew Point
09/05 - 09:15 PM65.8°56.7°
09/05 - 09:00 PM65.6°56.9°
09/05 - 08:45 PM66.3°57.6°
09/05 - 08:30 PM67.1°57.9°
09/05 - 08:15 PM68.1°58.4°
09/05 - 08:00 PM69.1°58.5°
09/05 - 07:45 PM70.7°59.6°
09/05 - 07:30 PM72.8°60.5°
09/05 - 07:15 PM75.5°61.7°
09/05 - 07:00 PM78.2°62.7°
09/05 - 06:45 PM80.9°61.9°
09/05 - 06:30 PM83.2°60.6°
09/05 - 06:15 PM84.9°58.4°
09/05 - 06:00 PM86.5°57.8°
09/05 - 05:45 PM87.7°57.1°
09/05 - 05:30 PM88.4°57.6°
09/05 - 05:15 PM88.9°57.9°
09/05 - 05:00 PM89.6°58.2°
09/05 - 04:45 PM89.3°57.9°
09/05 - 04:30 PM89.8°56.5°
09/05 - 04:15 PM90.6°57.3°
09/05 - 04:00 PM90.3°58.2°
09/05 - 03:45 PM90.2°58.4°
09/05 - 03:30 PM89.5°57.7°
09/05 - 03:15 PM89.5°58.5°
09/05 - 03:00 PM89.2°58.2°
09/05 - 02:45 PM89.1°58.5°
09/05 - 02:30 PM88.1°59.0°
09/05 - 02:15 PM87.2°59.2°
09/05 - 02:00 PM86.6°59.4°
09/05 - 01:45 PM86.4°59.2°
09/05 - 01:30 PM85.5°59.3°
09/05 - 01:15 PM84.2°59.2°
09/05 - 01:00 PM83.8°59.2°
09/05 - 12:45 PM83.5°59.5°
09/05 - 12:30 PM82.8°59.8°
09/05 - 12:15 PM81.6°59.2°
09/05 - 12:00 PM80.9°59.1°
09/05 - 11:45 AM80.4°58.9°
09/05 - 11:30 AM80.1°59.1°
09/05 - 11:15 AM79.7°59.3°
09/05 - 11:00 AM78.7°59.0°
09/05 - 10:45 AM77.7°58.8°
09/05 - 10:30 AM76.7°58.0°
09/05 - 10:15 AM75.6°58.3°
09/05 - 10:00 AM74.5°57.8°
09/05 - 09:45 AM73.3°57.4°
09/05 - 09:30 AM71.4°57.5°
09/05 - 09:15 AM69.6°56.9°
09/05 - 09:00 AM67.8°56.5°
09/05 - 08:45 AM65.1°55.9°
09/05 - 08:30 AM63.5°55.6°
09/05 - 08:15 AM61.7°54.8°
09/05 - 08:00 AM58.8°54.7°
09/05 - 07:45 AM55.9°53.9°
09/05 - 07:30 AM54.1°52.2°
09/05 - 07:15 AM53.2°51.0°
09/05 - 07:00 AM52.6°50.1°
09/05 - 06:45 AM52.5°49.4°
09/05 - 06:30 AM52.7°49.6°
09/05 - 06:15 AM53.0°49.9°
09/05 - 06:00 AM53.1°49.8°
09/05 - 05:45 AM53.4°49.6°
09/05 - 05:30 AM53.9°49.8°
09/05 - 05:15 AM54.6°50.1°
09/05 - 05:00 AM55.1°50.3°
09/05 - 04:45 AM55.2°50.3°
09/05 - 04:30 AM55.9°50.4°
09/05 - 04:15 AM56.3°50.3°
09/05 - 04:00 AM56.5°50.6°
09/05 - 03:45 AM56.5°51.0°
09/05 - 03:30 AM56.5°51.5°
09/05 - 03:15 AM56.7°51.9°
09/05 - 03:00 AM56.8°52.1°
09/05 - 02:45 AM56.7°51.8°
09/05 - 02:30 AM56.8°52.0°
09/05 - 02:15 AM56.9°52.0°
09/05 - 02:00 AM57.3°52.3°
09/05 - 01:45 AM57.7°52.3°
09/05 - 01:30 AM58.0°52.4°
09/05 - 01:15 AM58.2°52.3°
09/05 - 01:00 AM58.3°52.1°
09/05 - 12:45 AM58.1°52.0°
09/05 - 12:30 AM59.2°52.3°
09/05 - 12:15 AM60.0°52.8°
09/05 - 12:00 AM60.6°52.9°
09/04 - 11:45 PM61.5°53.0°
09/04 - 11:30 PM62.2°52.8°
09/04 - 11:15 PM62.7°52.6°
09/04 - 11:00 PM63.4°53.0°
09/04 - 10:45 PM63.9°53.4°
09/04 - 10:30 PM63.8°53.2°
09/04 - 10:15 PM64.5°55.5°
09/04 - 10:00 PM65.5°55.1°
09/04 - 09:45 PM65.9°53.6°
09/04 - 09:30 PM67.8°54.5°
09/04 - 09:15 PM67.0°53.7°
09/04 - 09:00 PM67.8°54.5°
09/04 - 08:45 PM69.3°56.0°
09/04 - 08:30 PM69.3°56.0°
09/04 - 08:15 PM70.8°56.7°
09/04 - 08:00 PM71.0°56.6°
09/04 - 07:45 PM71.8°58.3°
09/04 - 07:30 PM73.7°58.8°
09/04 - 07:15 PM76.0°58.9°
09/04 - 07:00 PM78.1°58.5°
09/04 - 06:45 PM79.7°56.7°
09/04 - 06:30 PM80.7°56.1°
09/04 - 06:15 PM81.7°56.9°
09/04 - 06:00 PM82.6°57.1°
09/04 - 05:45 PM83.7°57.9°
09/04 - 05:30 PM84.6°58.8°
09/04 - 05:15 PM85.1°59.2°
09/04 - 05:00 PM85.5°59.1°
09/04 - 04:45 PM85.9°59.5°
09/04 - 04:30 PM86.1°59.9°
09/04 - 04:15 PM86.5°60.1°
09/04 - 04:00 PM86.6°60.5°
09/04 - 03:45 PM86.8°60.6°
09/04 - 03:30 PM86.6°60.5°
09/04 - 03:15 PM86.0°60.7°
09/04 - 03:00 PM85.5°60.2°
09/04 - 02:45 PM85.2°60.8°
09/04 - 02:30 PM84.9°61.0°
09/04 - 02:15 PM84.3°61.1°
09/04 - 02:00 PM83.8°61.1°
09/04 - 01:45 PM83.1°61.4°
09/04 - 01:30 PM82.2°61.0°
09/04 - 01:15 PM81.7°61.4°
09/04 - 01:00 PM80.5°61.8°
09/04 - 12:45 PM79.8°61.8°
09/04 - 12:30 PM78.7°61.2°
09/04 - 12:15 PM77.6°61.6°
09/04 - 12:00 PM78.2°61.8°
09/04 - 11:45 AM77.9°61.4°
09/04 - 11:30 AM76.6°61.1°
09/04 - 11:15 AM76.3°60.9°
09/04 - 11:00 AM75.8°60.9°
09/04 - 10:45 AM74.2°60.2°
09/04 - 10:30 AM73.2°61.6°
09/04 - 10:15 AM71.9°61.0°
09/04 - 10:00 AM71.1°61.3°
09/04 - 09:45 AM70.2°61.1°
09/04 - 09:30 AM69.5°61.2°
09/04 - 09:15 AM68.5°60.8°
09/04 - 09:00 AM67.4°60.6°
09/04 - 08:45 AM65.6°60.2°
09/04 - 08:30 AM64.1°60.2°
09/04 - 08:15 AM61.9°60.6°
09/04 - 08:00 AM60.5°59.7°
09/04 - 07:45 AM58.5°57.6°
09/04 - 07:30 AM57.2°56.1°
09/04 - 07:15 AM55.5°54.0°
09/04 - 07:00 AM54.6°52.6°
09/04 - 06:45 AM54.5°52.5°
09/04 - 06:30 AM54.6°52.5°
09/04 - 06:15 AM54.7°52.4°
09/04 - 06:00 AM54.9°52.6°
09/04 - 05:45 AM55.1°52.9°
09/04 - 05:30 AM55.2°53.2°
09/04 - 05:15 AM55.6°53.7°
09/04 - 05:00 AM55.5°53.4°
09/04 - 04:45 AM55.3°52.8°
09/04 - 04:30 AM55.8°53.2°
09/04 - 04:15 AM56.0°53.6°
09/04 - 04:00 AM56.2°53.7°
09/04 - 03:45 AM55.8°53.1°
09/04 - 03:30 AM56.3°53.4°
09/04 - 03:15 AM56.9°53.5°
09/04 - 03:00 AM57.3°53.8°
09/04 - 02:45 AM57.9°54.3°
09/04 - 02:30 AM58.4°54.4°
09/04 - 02:15 AM59.1°54.8°
09/04 - 02:00 AM59.9°55.4°
09/04 - 01:45 AM60.7°55.9°
09/04 - 01:30 AM61.7°56.4°
09/04 - 01:15 AM62.0°56.3°
09/04 - 01:00 AM63.1°56.3°
09/04 - 12:45 AM63.9°56.2°
09/04 - 12:30 AM63.6°55.8°
09/04 - 12:15 AM62.2°55.0°
09/04 - 12:00 AM61.6°54.6°
09/03 - 11:45 PM61.5°54.3°
09/03 - 11:30 PM60.7°54.1°
09/03 - 11:15 PM60.5°55.0°
09/03 - 11:00 PM60.5°55.9°
09/03 - 10:45 PM60.8°55.9°
09/03 - 10:30 PM61.2°56.6°
09/03 - 10:15 PM61.8°56.9°
09/03 - 10:00 PM62.1°57.2°
09/03 - 09:45 PM62.5°57.3°